Lafayette, IN

8:34 AM EST on February 08, 2016 (GMT -0500)
Purdue Univ

Weather History for KLAF - October, 2012

Change the Weather History Date:

Thursday, October 25, 2012

  Actual Average Record
Temperature  
Mean Temperature 62 °F 51 °F  
Max Temperature 77 °F 62 °F 77 °F (1989)
Min Temperature 46 °F 41 °F 24 °F (2006)
Degree Days  
Heating Degree Days 3 14  
Month to date heating degree days 300 259  
Since 1 July heating degree days 441 344  
Cooling Degree Days 0 0  
Month to date cooling degree days 2 13  
Year to date cooling degree days 1181 978  
Growing Degree Days 13 (Base 50)    
Moisture  
Dew Point 54 °F    
Average Humidity 67    
Maximum Humidity 83    
Minimum Humidity 50    
Precipitation  
Precipitation 0.02 in 0.09 in 0.64 in (1986)
Month to date precipitation 5.33 2.33  
Year to date precipitation 26.67 30.54  
Sea Level Pressure  
Sea Level Pressure 29.89 in    
Wind  
Wind Speed 12 mph (SSW)    
Max Wind Speed 25 mph    
Max Gust Speed 32 mph    
Visibility 10 miles    
Events Rain    
T = Trace of Precipitation, MM = Missing Value Source: NWS Daily Summary

Daily Weather History Graph

Daily Weather History Graph

Search for Another Location

Airport or City:

Trip Planner

Search our weather history database for the weather conditions in past years. The results will help you decide how hot, cold, wet, or windy it might be!

Date:

Astronomy

Oct. 25, 2012 Rise Set
Actual Time 8:10 AM EDT 6:52 PM EDT
Civil Twilight 7:42 AM EDT 7:20 PM EDT
Nautical Twilight 7:10 AM EDT 7:52 PM EDT
Astronomical Twilight 6:38 AM EDT 8:24 PM EDT
Moon 4:39 PM EDT (10/25) 4:05 AM EDT (10/25)
Length of Visible Light 11h 38m
Length of Day
10h 42m
Waxing Gibbous, 84% of the Moon is Illuminated
Oct 25
Waxing Gibbous
Oct 29
Full
Nov 6
Last Quarter
Nov 13
New
Nov 20
First Quarter

Hourly Weather History & Observations

Time (EDT) Temp. Dew Point Humidity Pressure Visibility Wind Dir Wind Speed Gust Speed Precip Events Conditions
12:54 AM 64.9 °F 55.0 °F 70% 29.94 in 10.0 mi South 8.1 mph - N/A   Clear
1:54 AM 64.0 °F 54.0 °F 70% 29.93 in 10.0 mi South 6.9 mph - N/A   Clear
2:54 AM 63.0 °F 53.1 °F 70% 29.92 in 10.0 mi South 6.9 mph - N/A   Clear
3:54 AM 62.1 °F 53.1 °F 72% 29.91 in 10.0 mi South 6.9 mph - N/A   Clear
4:54 AM 62.1 °F 53.1 °F 72% 29.91 in 10.0 mi South 8.1 mph - N/A   Clear
5:54 AM 60.1 °F 53.1 °F 78% 29.91 in 10.0 mi SSW 6.9 mph - N/A   Clear
6:54 AM 60.1 °F 53.1 °F 78% 29.91 in 10.0 mi South 5.8 mph - N/A   Clear
7:54 AM 59.0 °F 53.1 °F 81% 29.93 in 10.0 mi SW 5.8 mph - N/A   Clear
8:54 AM 59.0 °F 54.0 °F 83% 29.94 in 10.0 mi South 5.8 mph - N/A   Clear
9:54 AM 64.0 °F 55.9 °F 75% 29.94 in 10.0 mi South 8.1 mph - N/A   Clear
10:54 AM 68.0 °F 55.9 °F 65% 29.92 in 10.0 mi SSW 16.1 mph 20.7 mph N/A   Partly Cloudy
11:54 AM 72.0 °F 57.0 °F 59% 29.90 in 10.0 mi SSW 15.0 mph 20.7 mph N/A   Partly Cloudy
12:54 PM 73.9 °F 57.0 °F 55% 29.88 in 10.0 mi SSW 15.0 mph 24.2 mph N/A   Scattered Clouds
1:54 PM 75.9 °F 57.0 °F 52% 29.84 in 10.0 mi SSW 12.7 mph 27.6 mph N/A   Partly Cloudy
2:54 PM 75.9 °F 57.0 °F 52% 29.83 in 10.0 mi SSW 18.4 mph 28.8 mph N/A   Partly Cloudy
4:54 PM 75.9 °F 57.0 °F 52% 29.80 in 10.0 mi South 16.1 mph 29.9 mph N/A   Clear
5:54 PM 75.0 °F 57.0 °F 53% 29.81 in 10.0 mi SSW 15.0 mph 25.3 mph N/A   Scattered Clouds
6:54 PM 73.0 °F 57.0 °F 57% 29.81 in 10.0 mi South 10.4 mph 19.6 mph N/A   Partly Cloudy
7:54 PM 71.1 °F 57.0 °F 61% 29.82 in 10.0 mi SSW 10.4 mph 17.3 mph N/A   Clear
8:54 PM 70.0 °F 57.0 °F 63% 29.83 in 10.0 mi South 10.4 mph 17.3 mph N/A   Mostly Cloudy
9:50 PM 57.2 °F 50.0 °F 77% 29.88 in 10.0 mi NW 20.7 mph 28.8 mph N/A   Overcast
9:54 PM 55.9 °F 50.0 °F 80% 29.89 in 10.0 mi WNW 18.4 mph 28.8 mph N/A   Overcast
10:54 PM 51.1 °F 46.9 °F 86% 29.95 in 10.0 mi NW 13.8 mph 20.7 mph 0.00 in   Overcast
11:54 PM 48.9 °F - N/A% 30.00 in 10.0 mi NW 15.0 mph - 0.00 in Rain Light Rain